Audubon County Airport
Sunday 1:55 PM
Temperature70° (70°/57°)
Dew Point55°
Relative Humidity60
%
Visibility10
mi
Pressure1024.4
mb
Wind DirectionSSE
160°
Wind Speed15
mph
(G21)
Precipitation Today0.00"

Last 30 Observations

Time PresWx Temp DP Feels RH% Vsby Pressure Ceiling Direction Speed 1h Precip
1:35 PM 68° 55° 64
%
10
mi
1024.7
mb
SSE
160°
13
mph
0.00"
1:15 PM 66° 55° 68
%
10
mi
1025.1
mb
8,000
ft
SSE
150°
10
mph
(G18)
0.00"
12:55 PM 64° 55° 73
%
10
mi
1025.1
mb
8,000
ft
SSE
150°
11
mph
0.00"
12:35 PM 64° 55° 73
%
10
mi
1025.4
mb
8,000
ft
SSE
160°
9
mph
0.00"
12:15 PM 64° 55° 73
%
10
mi
1025.4
mb
7,000
ft
SSE
160°
11
mph
0.00"
11:55 AM 63° 55° 77
%
10
mi
1025.7
mb
7,000
ft
SSE
150°
8
mph
0.00"
11:35 AM 63° 55° 77
%
10
mi
1025.7
mb
4,400
ft
SE
140°
11
mph
0.00"
11:15 AM 63° 55° 77
%
10
mi
1025.4
mb
4,800
ft
SSE
160°
10
mph
0.00"
10:55 AM 63° 55° 77
%
10
mi
1025.7
mb
4,800
ft
SSE
160°
8
mph
0.00"
10:35 AM RA 64° 55° 73
%
10
mi
1025.7
mb
6,500
ft
SSE
160°
8
mph
0.00"
10:15 AM 64° 55° 73
%
10
mi
1025.7
mb
7,500
ft
SSE
160°
7
mph
0.00"
9:55 AM 64° 55° 73
%
10
mi
1025.7
mb
5,000
ft
SSE
150°
8
mph
0.00"
9:35 AM 64° 55° 73
%
10
mi
1025.7
mb
6,500
ft
SSE
150°
8
mph
0.00"
9:15 AM 64° 55° 73
%
10
mi
1025.7
mb
7,000
ft
SE
130°
8
mph
0.00"
8:55 AM 64° 55° 73
%
10
mi
1025.7
mb
6,000
ft
SE
140°
7
mph
0.00"
8:35 AM 63° 55° 77
%
10
mi
1025.7
mb
SE
130°
7
mph
0.00"
8:15 AM 63° 55° 77
%
10
mi
1025.7
mb
9,000
ft
ESE
110°
7
mph
0.00"
7:55 AM 61° 55° 82
%
10
mi
1025.7
mb
8,000
ft
ESE
110°
6
mph
0.00"
7:35 AM 61° 55° 82
%
10
mi
1025.4
mb
6,000
ft
ESE
110°
6
mph
0.00"
7:15 AM 61° 55° 82
%
10
mi
1025.4
mb
6,000
ft
SE
130°
3
mph
0.00"
6:55 AM 61° 55° 82
%
10
mi
1025.4
mb
6,000
ft
Calm 0.00"
6:35 AM 59° 54° 82
%
10
mi
1025.1
mb
6,000
ft
Calm 0.00"
6:15 AM 59° 54° 82
%
10
mi
1024.7
mb
6,000
ft
Calm 0.00"
5:55 AM 59° 54° 82
%
10
mi
1024.7
mb
6,000
ft
Calm 0.00"
5:35 AM 57° 54° 88
%
10
mi
1024.4
mb
6,000
ft
Calm 0.00"
5:15 AM 57° 54° 88
%
10
mi
1024.4
mb
6,000
ft
ESE
120°
3
mph
0.00"
4:55 AM 57° 52° 82
%
10
mi
1024.1
mb
6,000
ft
Calm 0.00"
4:35 AM 57° 52° 82
%
10
mi
1024.1
mb
6,000
ft
Calm 0.00"
4:15 AM 57° 52° 82
%
10
mi
1024.4
mb
7,000
ft
Calm 0.00"
3:55 AM 57° 52° 82
%
10
mi
1024.7
mb
7,500
ft
Calm 0.00"